sat.trackr.live / text

‹ back to catalog

STARLINK-34698

NORAD 66445 · 2025-259Z

PAYLOAD ACTIVE UNKNOWN

§ Identity

Operator
Country
US
Launch date
2025-11-11
Launch site
AFETR
Launch vehicle
Mass (kg)
RCS (m²)

Purposes: comms

External: N2YO · Heavens-Above · Gunter

§ Orbital elements

Epoch: 2026-05-24T12:19:23.236896Z

Period
94.27 min
Inclination
42.9995°
Eccentricity
0.0001678
Mean motion
15.27591272 rev/d
Perigee alt
481.9 km
Apogee alt
484.2 km
Semi-major
6,861.2 km
B*
4.2367e-4
RAAN
206.4661°
Arg perigee
275.5816°
Mean anomaly
84.4845°
Rev number
3,097

§ Raw data

STARLINK-346981 66445U 25259Z   26144.51346339  .00011418  00000+0  42367-3 0  99982 66445  42.9995 206.4661 0001678 275.5816  84.4845 15.27591272 30979

JSON: /api/v1/satellites/66445 · /tle

For live sub-satellite position, see the globe view (requires WebGL).

§ Visibility from observer

Set your observer location to see the next 7 days of passes ≥ 10°. The values pass through the URL so the page stays shareable.

No JS? Fill the form by hand. The geolocation button needs JavaScript.